Alyeska Resort
Hourly Weather - Mid Mountian Site
ALY_MID_HR 5/24/2015
CLICK TO VIEW GRAPH!!

        DATE  TIME   Air   H2o   H2o   New  Snow  BATT   Rel
                    Temp  Inch Since  Snow Depth  Volt  Hum%
                      F   1HR  0600   1HR         AVG   AVG

   5/24/2015 20:00    46  0.00  0.01  22.1  0.00 13.23    94
   5/24/2015 19:00    47  0.01  0.01  22.7  0.00 13.22    92
   5/24/2015 18:00    47  0.00  0.00  22.9  0.00 13.22    91
   5/24/2015 17:00    47  0.00  0.00  22.8  0.00 13.22    90
   5/24/2015 16:00    48  0.00  0.00  21.6  0.00 13.22    90
   5/24/2015 15:00    49  0.00  0.00  20.4  0.00 13.23    88
   5/24/2015 14:00    48  0.00  0.00  19.8  0.00 13.24    90
   5/24/2015 13:00    47  0.00  0.00  19.4  0.00 13.25    92
   5/24/2015 12:00    46  0.00  0.00  20.2  0.00 13.26    94
   5/24/2015 11:00    46  0.00  0.00  21.3  0.00 13.27    92
   5/24/2015 10:00    46  0.00  0.00  23.1  0.00 13.28    94
   5/24/2015 09:00    44  0.00  0.00  24.5  0.00 13.29    94
   5/24/2015 08:00    43  0.00  0.00  24.6  0.00 13.30    95
   5/24/2015 07:00    42  0.00  0.00  24.7  0.00 13.30    97
   5/24/2015 06:00    42  0.00  0.35  24.5  0.00 13.29    96
   5/24/2015 05:00    42  0.00  0.35  23.9  0.00 13.29    96
   5/24/2015 04:00    42  0.01  0.35  23.5  0.00 13.29    96
   5/24/2015 03:00    42  0.02  0.34  23.3  0.00 13.29    96
   5/24/2015 02:00    42  0.00  0.32  22.8  0.00 13.28    96
   5/24/2015 01:00    42  0.02  0.32  20.5  0.00 13.27    95
   5/23/2015 24:00    43  0.07  0.30  18.1  0.00 13.26    96
   5/23/2015 23:00    44  0.04  0.23  16.5  0.00 13.26    96
   5/23/2015 22:00    44  0.05  0.19  15.4  0.00 13.25    95
   5/23/2015 21:00    45  0.07  0.14  13.9  0.00 13.24    92


CLICK TO VIEW GRAPH!!